User: anonymous
Location: Mason Neck State Park
(38.6428°N, 77.1981°W)
Time: 17:53:44
(UTC-04:00)
Language:

Cosmos 1400 Rocket - Orbit

View from above orbital plane
View from above orbital plane
View from above satellite
View from above satellite

Ground track
Ground track

The orbit data is extracted from the following two-line orbital elements,

1 13403U 82079B   14106.47041541  .00002547  00000-0  18367-3 0  5436
2 13403 081.1703 152.9154 0037654 125.9189 234.5537 15.03235608722542
Epoch (UTC): 16 April 2014 11:17:23
Eccentricity: 0.0037654
inclination: 81.1703°
perigee height: 531 km
apogee height: 583 km
right ascension of ascending node: 152.9154°
argument of perigee: 125.9189°
revolutions per day: 15.03235608
mean anomaly at epoch: 234.5537°
orbit number at epoch: 72254

The dashed part of the orbit path shows where the satellite is in the earth's shadow,  

DLR